Weather History for KMDT - July, 2014

Change the Weather History Date:

Thursday, July 10, 2014

  Actual Average Record
Temperature  
Mean Temperature 78 °F 76 °F  
Max Temperature 88 °F 86 °F 103 °F (1936)
Min Temperature 67 °F 66 °F 52 °F (1894)
Degree Days  
Heating Degree Days 0 0  
Month to date heating degree days 0 0  
Since 1 June heating degree days 1 18  
Since 1 July heating degree days 0 0  
Cooling Degree Days 13 11  
Month to date cooling degree days 142 108  
Year to date cooling degree days 449 386  
Since 1 June cooling degree days 389 321  
Growing Degree Days 26 (Base 50)    
Moisture  
Dew Point 62 °F    
Average Humidity 64    
Maximum Humidity 87    
Minimum Humidity 40    
Precipitation  
Precipitation T in 0.15 in 1.38 in (2010)
Month to date precipitation 0.47 1.46  
Year to date precipitation 25.89 20.59  
Sea Level Pressure  
Sea Level Pressure 30.06 in    
Wind  
Wind Speed 5 mph (North)    
Max Wind Speed 22 mph    
Max Gust Speed 31 mph    
Visibility 10 miles    
Events Thunderstorm    
T = Trace of Precipitation, MM = Missing Value Source: NWS Daily Summary

Daily Weather History Graph

Daily Weather History Graph

Search for Another Location

Airport or City:

Trip Planner

Search our weather history database for the weather conditions in past years. The results will help you decide how hot, cold, wet, or windy it might be!

Date:

Astronomy

Jul. 10, 2014 Rise Set
Actual Time 5:46 AM EDT 8:37 PM EDT
Civil Twilight 5:14 AM EDT 9:10 PM EDT
Nautical Twilight 4:33 AM EDT 9:50 PM EDT
Astronomical Twilight 3:46 AM EDT 10:37 PM EDT
Moon 6:48 PM EDT (7/10) 3:56 AM EDT (7/10)
Length of Visible Light 15h 55m
Length of Day
14h 51m
Waxing Gibbous, 95% of the Moon is Illuminated
Jul 10
Waxing Gibbous
Jul 12
Full
Jul 18
Last Quarter
Jul 26
New
Aug 3
First Quarter

Hourly Weather History & Observations

Time (EDT) Temp. Heat Index Dew Point Humidity Pressure Visibility Wind Dir Wind Speed Gust Speed Precip Events Conditions
12:56 AM 73.0 °F - 63.0 °F 71% 29.96 in 10.0 mi Calm Calm - N/A   Scattered Clouds
1:56 AM 72.0 °F - 62.1 °F 71% 29.98 in 10.0 mi NNW 5.8 mph - N/A   Scattered Clouds
2:56 AM 70.0 °F - 61.0 °F 73% 29.99 in 10.0 mi NW 5.8 mph - N/A   Partly Cloudy
3:56 AM 70.0 °F - 62.1 °F 76% 29.99 in 10.0 mi Calm Calm - N/A   Scattered Clouds
4:56 AM 66.9 °F - 62.1 °F 84% 30.01 in 10.0 mi NNW 3.5 mph - N/A   Partly Cloudy
5:56 AM 66.9 °F - 62.1 °F 84% 30.02 in 9.0 mi NW 3.5 mph - N/A   Partly Cloudy
6:56 AM 69.1 °F - 62.1 °F 78% 30.05 in 9.0 mi Calm Calm - N/A   Clear
7:56 AM 72.0 °F - 63.0 °F 73% 30.07 in 10.0 mi NNE 3.5 mph - N/A   Clear
8:56 AM 75.9 °F - 62.1 °F 62% 30.09 in 10.0 mi East 5.8 mph - N/A   Clear
9:56 AM 78.1 °F - 62.1 °F 58% 30.09 in 10.0 mi NE 5.8 mph - N/A   Clear
10:56 AM 81.0 °F 81.7 °F 61.0 °F 50% 30.09 in 10.0 mi NE 6.9 mph - N/A   Clear
11:56 AM 82.9 °F 82.8 °F 59.0 °F 44% 30.10 in 10.0 mi North - - N/A   Clear
12:56 PM 84.9 °F 84.8 °F 60.1 °F 43% 30.09 in 10.0 mi SSE 8.1 mph - N/A   Mostly Cloudy
1:56 PM 87.1 °F 87.0 °F 61.0 °F 41% 30.09 in 10.0 mi SSW 5.8 mph - N/A   Mostly Cloudy
2:56 PM 87.1 °F 87.0 °F 61.0 °F 41% 30.06 in 10.0 mi South 3.5 mph - N/A   Scattered Clouds
3:56 PM 87.1 °F 86.7 °F 60.1 °F 40% 30.05 in 10.0 mi Variable 3.5 mph - N/A   Mostly Cloudy
4:56 PM 86.0 °F 85.7 °F 60.1 °F 41% 30.04 in 10.0 mi Calm Calm - N/A   Mostly Cloudy
5:56 PM 82.9 °F 83.3 °F 61.0 °F 47% 30.03 in 10.0 mi NE 5.8 mph - N/A   Mostly Cloudy
6:56 PM 77.0 °F - 64.0 °F 64% 30.08 in 10.0 mi NNW 16.1 mph 28.8 mph 0.00 in Thunderstorm Thunderstorm
7:56 PM 70.0 °F - 62.1 °F 76% 30.08 in 10.0 mi NE 12.7 mph 23.0 mph N/A   Mostly Cloudy
8:56 PM 71.1 °F - 60.1 °F 68% 30.10 in 10.0 mi Calm Calm - N/A   Mostly Cloudy
10:56 PM 69.1 °F - 62.1 °F 78% 30.13 in 10.0 mi North 3.5 mph - N/A   Scattered Clouds
11:56 PM 68.0 °F - 63.0 °F 84% 30.14 in 10.0 mi Calm Calm - N/A   Scattered Clouds